Flag for Norway Weather past 2 weeks in Elverum, Norway

Now
62 °F

Refreshingly cool.


Feels Like: 62 °F
Forecast: 40 / 61 °F
Wind: 5 mph from South

Location: Haugedalshogda

Current Time: Sep 18, 2014 at 6:37:09 PM

Latest Report: Sep 18, 2014 at 5:00 PM


Visibility: N/A

Pressure: 30.16 "Hg

Humidity: 59%

Dew point: 47 °F

Location of ElverumLocation

Historic Weather in Elverum — Graph

°F

Elverum temperature yesterday

Maximum temperature yesterday: 65 °F (at 3:00 PM)
Minimum temperature yesterday: 34 °F (at 4:00 AM)
Average temperature yesterday: 45 °F

Past Weeks' High & Low Weather Summary

 TemperatureHumidityPressure
High71 °F (Sep 4, 3:00 PM)95% (Sep 4, 4:00 AM)30.56 "Hg (Sep 4, 4:00 AM)
Low32 °F (Sep 13, 6:00 AM)35% (Sep 4, 3:00 PM)29.79 "Hg (Sep 9, 7:00 AM)
Average51 °F81%30.24 "Hg
* Reported Sep 3 5:00 PM — Sep 18 5:00 PM, Elverum, Weather by CustomWeather, © 2014

Note: Actual official high and low records may vary slightly from our data, if they occured in-between our weather recording intervals... More about our weather records

Advertising

Elverum weather history for previous 24 hours

 ConditionsComfort  
Time TempWeatherWind HumidityBarometerVisibility
5:00 PM
Sep 18
62 °FRefreshingly cool.5 mph59%30.16 "HgN/A
4:00 PM62 °FMild.5 mph56%30.16 "HgN/A
3:00 PM62 °FRefreshingly cool.5 mph57%30.17 "HgN/A
2:00 PM61 °FRefreshingly cool.2 mph59%30.19 "HgN/A
1:00 PM55 °FCool.1 mph73%30.23 "HgN/A
12:00 PM46 °FCool.1 mph94%30.26 "HgN/A
11:00 AM43 °FQuite cool.1 mph94%30.29 "HgN/A
10:00 AM41 °FQuite cool.1 mph95%30.29 "HgN/A
9:00 AM39 °FChilly.1 mph95%30.29 "HgN/A
8:00 AM36 °FChilly.No wind95%30.30 "HgN/A
7:00 AM33 °FChilly.1 mph95%30.31 "HgN/A
6:00 AM33 °FChilly.1 mph95%30.30 "HgN/A
5:00 AM34 °FChilly.1 mph95%30.30 "HgN/A
4:00 AM35 °FChilly.1 mph95%30.31 "HgN/A
3:00 AM35 °FChilly.No wind95%30.31 "HgN/A
2:00 AM34 °FChilly.1 mph94%30.32 "HgN/A
1:00 AM34 °FChilly.1 mph94%30.32 "HgN/A
12:00 AM36 °FChilly.No wind94%30.31 "HgN/A
11:00 PM
Sep 17
37 °FChilly.1 mph92%30.31 "HgN/A
10:00 PM37 °FChilly.1 mph90%30.30 "HgN/A
9:00 PM41 °FQuite cool.1 mph90%30.29 "HgN/A
8:00 PM45 °FQuite cool.1 mph86%30.28 "HgN/A
7:00 PM55 °FCool.1 mph67%30.25 "HgN/A
6:00 PM62 °FRefreshingly cool.2 mph56%30.24 "HgN/A
Weather by CustomWeather, © 2014

See weather overviewHow to use our weather pages